Wind_Speed
70 72 75 75 73 71 69 68 65 62 60 58 57 58 59 61 60 56 55 54 55 58 60 60 61 62 62 61 56 51 49 49 48 47 47 47 45 43 42 43 45 45 43 40 41 42 40 37 35 34 33 31 29 28 27 28 28 29 30 29 28 28 29 27 27 28 29 29 30 31 31 32 32 32 32 32 32 32 32 32 32 31 29 29 29 30
70 72 74 71 68 67 66 66 65 64 63 62 62 61 60 60 59 56 56 56 56 59 59 58 61 62 62 62 61 58 56 56 55 53 51 49 47 46 45 44 44 45 44 43 44 44 44 42 39 39 37 35 33 30 29 29 28 29 30 29 29 31 31 30 30 30 30 29 30 32 32 32 32 31 31 31 32 32 31 31 31 29 28 28 29 31
72 74 72 67 65 65 67 68 67 67 67 66 67 67 64 60 58 57 57 56 58 61 58 57 61 61 61 62 62 63 61 59 58 57 55 52 50 49 47 46 44 44 44 44 45 45 46 45 44 43 42 39 37 34 33 32 30 29 29 29 30 33 34 34 34 33 32 32 32 32 32 32 32 31 30 30 31 30 30 32 32 30 29 29 30 33
73 73 71 67 66 68 69 70 70 70 70 70 71 71 68 64 62 61 59 58 60 61 59 60 63 63 63 63 64 64 64 61 58 57 57 55 52 49 48 47 45 45 44 44 45 47 47 47 47 47 44 42 41 40 38 36 33 31 30 30 32 35 36 37 37 36 35 36 35 34 33 32 31 30 30 30 29 29 30 32 32 32 32 31 31 32
68 66 66 67 68 69 70 71 72 72 72 72 72 72 69 65 64 62 60 61 63 63 61 61 66 67 65 66 66 65 65 63 60 58 58 56 53 49 48 47 47 46 46 46 45 47 49 49 48 48 46 45 44 43 42 40 38 36 35 35 35 36 37 37 37 37 38 39 38 37 35 33 32 31 31 29 27 28 30 31 32 33 33 32 31 31
63 60 62 65 67 69 70 70 71 72 72 73 73 71 68 66 65 63 62 63 64 65 61 60 67 68 64 65 66 65 66 65 61 59 59 58 54 52 50 50 48 48 47 47 46 46 48 49 49 48 47 47 46 45 44 44 44 42 41 40 39 38 37 37 37 38 40 41 40 40 38 36 35 34 32 30 28 30 31 31 32 33 32 31 31 31
61 58 60 62 65 68 69 70 70 70 72 74 71 68 66 67 67 66 65 65 66 67 62 61 68 68 64 65 65 65 67 67 63 61 59 58 58 56 53 51 50 49 48 47 47 46 46 47 48 48 47 48 48 47 46 46 47 47 46 44 43 41 40 39 39 39 40 41 41 41 40 39 38 37 34 32 32 33 33 33 33 32 31 31 31 31
62 59 61 61 63 66 68 69 68 68 70 71 67 66 67 68 68 68 68 69 69 68 66 66 68 70 68 65 63 65 66 65 64 62 60 59 59 58 55 52 50 49 48 46 45 44 45 46 47 47 46 47 48 49 49 49 49 49 48 48 47 46 44 43 42 41 41 40 41 41 41 41 40 38 35 35 36 36 36 36 34 33 33 33 32 32
64 62 62 61 62 65 66 66 66 66 68 67 65 66 67 67 67 67 68 70 70 70 72 71 69 71 71 65 63 66 66 64 62 59 58 58 59 58 56 54 51 49 46 45 43 42 42 43 44 44 44 45 46 48 49 50 50 50 49 49 50 50 48 46 45 45 44 42 42 42 42 41 40 39 37 37 38 38 38 39 37 36 35 35 35 35
62 62 61 61 63 64 61 61 63 64 65 64 64 66 66 65 66 67 68 66 65 68 72 72 70 72 72 67 65 66 65 64 61 56 54 54 56 57 56 54 53 52 50 47 46 44 43 43 43 43 44 43 44 45 46 48 50 51 50 50 50 51 51 50 49 48 47 45 45 44 43 42 41 40 39 39 40 39 39 39 39 38 37 38 38 38
61 61 60 60 62 61 58 58 60 63 63 62 63 64 65 67 66 67 69 66 65 70 71 69 69 71 73 72 70 67 63 60 59 59 56 53 53 54 55 54 55 56 56 54 52 50 48 49 49 48 47 45 45 45 45 47 49 52 52 51 51 51 51 51 50 50 49 48 48 47 46 45 43 42 41 41 41 40 39 39 39 39 39 39 40 40
62 63 62 61 61 60 58 59 61 62 64 65 65 63 64 67 67 68 68 67 69 72 71 68 67 70 76 78 73 69 63 58 57 58 58 56 54 53 54 54 54 56 58 58 58 56 55 54 53 53 52 50 49 49 48 47 49 51 53 53 51 51 51 50 50 50 50 50 50 50 50 48 46 45 44 43 42 42 40 38 39 41 41 40 40 40
64 65 64 63 63 62 60 60 62 63 64 66 68 67 67 68 69 71 71 70 72 74 72 71 70 74 80 80 76 71 65 61 58 57 56 55 53 52 52 53 53 55 58 59 59 60 60 58 56 55 54 52 51 51 51 50 50 51 52 54 54 52 50 49 49 49 50 51 51 52 52 51 50 48 47 45 44 43 43 41 40 41 42 42 41 41
65 65 65 65 65 64 63 62 64 64 64 66 68 69 71 72 73 75 76 75 77 76 75 73 73 78 82 80 77 74 68 63 60 57 55 54 53 51 50 52 54 55 57 58 59 60 61 60 59 57 56 54 51 51 51 51 51 51 52 54 55 53 50 49 48 48 49 50 51 52 53 53 52 51 50 48 46 46 45 44 43 43 43 44 43 42
61 63 65 65 64 64 65 65 64 62 61 63 65 66 71 73 75 78 77 77 77 76 76 75 76 82 84 80 77 75 70 64 60 58 57 56 55 52 50 51 53 55 56 56 57 58 58 59 59 58 57 55 52 50 50 50 51 51 51 53 54 53 51 49 47 46 47 48 49 51 52 53 53 52 51 51 50 49 49 47 47 46 46 45 44 44
60 62 60 58 57 58 60 61 61 61 61 62 63 67 71 70 70 74 76 76 75 75 76 77 79 82 83 79 75 73 71 66 61 60 60 58 55 54 54 54 54 55 55 56 56 57 56 56 57 56 56 55 52 50 49 49 49 51 51 52 53 53 52 50 48 46 46 46 47 48 49 50 51 51 51 52 52 51 51 51 50 50 49 47 46 46
60 60 58 56 56 55 54 55 57 60 60 60 62 66 65 63 66 71 75 75 75 77 80 80 79 81 81 78 74 71 71 70 66 62 60 59 57 55 55 55 55 56 56 57 57 57 57 55 55 55 55 54 52 51 50 48 48 49 50 50 51 52 52 50 48 46 46 46 47 46 46 47 47 47 48 49 50 51 52 53 53 53 52 51 49 48
53 52 52 54 55 54 53 54 57 59 58 58 61 60 59 60 64 68 72 73 73 76 78 77 77 79 81 79 74 70 71 71 69 64 61 61 60 58 57 56 56 56 56 57 57 56 56 54 53 52 53 53 52 52 52 51 49 49 49 49 50 50 49 48 47 47 46 46 46 45 44 43 43 44 45 46 47 49 51 53 54 54 54 53 52 52
49 49 50 50 50 51 53 56 58 59 59 60 58 56 58 63 64 65 67 68 69 72 72 71 72 75 79 79 74 71 71 71 70 67 63 62 61 60 60 58 57 55 55 54 54 53 53 51 50 49 48 50 52 54 55 55 54 53 51 51 51 49 47 46 46 46 47 46 44 42 42 42 41 42 42 43 45 47 50 52 52 53 54 54 55 55
50 51 51 49 49 51 54 57 60 60 60 61 59 58 61 62 61 63 66 66 66 66 66 67 68 71 74 73 71 72 71 70 69 69 66 63 61 61 61 59 58 56 55 54 53 53 52 50 49 47 46 46 49 53 57 58 59 59 58 57 55 52 49 48 47 47 46 45 43 41 41 41 41 40 40 41 43 45 48 49 50 52 53 54 55 56
53 54 52 50 51 55 56 58 58 57 59 61 62 63 64 63 61 63 66 68 68 68 68 69 72 74 73 70 67 68 69 69 69 70 69 66 63 62 61 61 60 58 56 56 56 56 55 54 52 50 49 47 47 50 55 59 62 63 64 63 62 60 58 54 51 49 48 47 45 42 41 41 40 39 39 40 41 43 45 47 49 50 51 52 54 54
52 53 52 53 54 55 55 54 53 54 56 59 61 62 63 65 64 64 66 66 68 70 71 72 73 73 72 69 63 59 60 62 64 68 69 66 63 62 61 61 59 57 56 55 56 56 57 56 55 53 52 50 49 48 51 55 60 63 65 64 64 65 64 62 58 55 53 51 48 44 42 43 42 40 39 40 40 41 43 44 46 47 49 50 51 51
51 53 53 55 56 54 53 54 54 54 54 57 60 61 62 65 68 70 69 65 64 65 66 69 71 69 66 63 58 52 54 57 58 60 62 61 59 57 56 57 56 56 55 54 54 54 55 55 55 55 54 52 50 48 47 49 54 59 62 62 62 62 64 66 65 62 59 56 53 50 47 46 46 45 43 42 41 42 43 44 45 47 48 48 49 50
54 55 54 54 55 54 55 55 55 55 56 58 60 60 62 65 67 70 71 69 70 70 67 68 71 70 68 64 58 53 54 56 57 57 56 57 57 56 55 55 55 56 56 56 55 54 54 54 54 54 55 54 52 50 48 46 48 53 57 60 59 58 59 63 66 67 65 61 58 57 55 52 51 50 49 46 45 45 46 45 45 46 48 48 49 49
54 55 55 55 56 56 58 58 57 57 58 59 59 58 60 62 63 66 69 71 77 79 75 75 76 73 70 66 62 59 56 56 59 60 59 58 58 58 57 56 56 57 57 58 57 56 55 55 54 54 55 56 55 53 51 48 46 47 51 56 58 57 56 58 62 66 68 67 65 63 62 60 57 56 54 52 50 49 49 48 47 46 47 48 49 49
52 54 54 57 59 58 58 56 54 53 54 56 57 57 58 60 62 66 69 73 79 80 78 81 82 78 72 66 62 61 58 57 59 62 64 63 61 61 60 60 59 59 59 59 59 58 57 55 55 56 57 59 58 56 54 52 49 47 48 52 56 57 56 56 57 61 65 68 69 68 67 66 63 61 59 57 55 53 51 51 50 48 47 48 48 49
49 52 53 56 57 55 52 48 46 49 52 55 55 55 57 59 62 65 69 72 75 75 78 82 82 81 78 71 65 62 59 58 57 58 61 62 62 63 64 63 62 61 60 60 60 59 58 57 57 57 59 61 62 60 56 54 52 50 49 49 53 56 56 55 56 57 60 64 68 70 70 69 67 65 62 60 58 56 54 52 51 50 48 48 48 48
49 51 52 53 53 51 48 46 48 51 53 54 55 55 56 58 62 66 69 70 69 72 76 76 77 81 81 76 72 69 65 62 61 61 63 65 65 65 66 65 64 63 62 62 62 61 59 60 60 59 59 61 63 63 60 58 55 53 51 50 51 54 56 56 56 56 57 60 63 67 69 70 69 68 65 62 61 59 56 53 52 51 49 48 48 48
50 50 49 50 51 49 48 48 50 51 52 55 56 57 57 58 61 63 65 66 66 70 73 71 71 76 77 74 72 70 70 70 68 66 67 68 69 68 66 64 64 62 61 60 61 60 60 61 61 60 60 60 61 62 61 60 58 55 54 52 52 54 55 57 57 57 57 58 59 61 65 67 68 67 66 64 63 61 58 55 53 51 50 49 49 49
49 48 48 50 50 49 49 50 51 52 54 55 56 58 58 60 62 63 63 63 62 65 67 67 69 73 73 72 68 65 67 70 71 70 69 67 67 67 66 64 62 61 60 59 58 58 58 58 58 58 59 59 60 60 60 59 58 57 55 54 54 55 56 57 58 58 58 57 58 59 60 62 64 63 63 62 62 61 59 57 55 53 51 50 50 51
48 48 48 48 49 49 49 49 50 52 54 55 56 58 59 60 62 64 64 65 65 65 63 61 65 67 64 63 61 60 64 68 68 70 71 70 70 70 69 68 65 62 60 59 59 58 58 58 57 57 58 58 59 60 60 60 60 60 59 56 54 54 56 58 58 58 59 58 58 58 59 59 60 60 59 58 58 59 59 58 56 54 52 51 51 52
44 45 45 46 47 46 45 46 49 51 54 57 57 56 56 57 59 60 62 64 66 67 66 65 66 62 51 49 51 50 56 65 68 68 69 70 70 71 70 69 67 63 61 60 61 61 60 59 58 57 57 57 58 59 61 62 63 64 64 62 59 57 55 56 57 58 59 60 59 59 59 59 58 58 58 57 56 56 57 57 57 56 55 53 52 53
40 41 43 44 44 43 43 46 48 50 54 56 53 50 51 54 55 57 60 62 63 65 67 68 70 64 56 57 57 46 43 51 58 62 64 63 63 65 66 66 65 63 62 62 62 61 60 58 57 56 55 56 56 57 59 61 63 64 64 64 64 63 60 58 58 59 60 60 60 60 59 59 59 59 59 59 58 57 56 56 56 56 55 54 53 53
39 39 40 42 42 43 45 46 47 50 53 49 43 43 47 50 53 56 57 58 60 63 65 66 67 65 63 67 67 59 53 52 51 53 58 59 59 60 61 61 63 63 62 62 62 60 59 56 54 53 54 53 53 53 55 57 61 63 63 63 63 64 63 61 60 61 62 62 61 61 61 60 60 60 61 61 60 59 57 56 55 55 55 54 53 53
39 39 40 40 41 43 45 45 46 48 46 41 38 41 42 43 46 49 51 53 55 59 62 64 64 64 64 65 66 66 65 63 58 55 56 56 57 58 58 59 61 62 61 61 61 59 58 57 55 53 53 52 51 52 53 55 59 62 63 63 62 61 61 61 60 60 62 64 64 64 63 63 62 62 62 63 63 62 59 58 57 56 56 56 55 54
38 39 39 40 42 44 44 45 45 43 40 39 38 38 38 38 39 42 44 45 47 52 55 58 59 60 61 62 62 63 63 63 64 64 62 59 57 57 57 57 58 59 60 60 61 59 57 57 56 55 54 53 53 53 54 55 58 62 63 64 64 63 61 61 60 60 62 64 66 66 66 65 64 64 64 64 65 65 63 61 59 59 59 59 59 58
39 40 39 40 42 43 44 45 44 41 40 39 37 36 36 37 38 41 44 42 42 45 47 48 50 51 53 55 57 59 61 63 67 69 67 66 64 62 60 57 56 57 58 59 61 61 59 58 58 57 57 55 55 55 55 55 56 58 61 63 65 66 66 65 65 65 66 66 67 67 68 67 66 65 65 65 67 68 68 66 64 62 62 62 62 62
42 42 41 42 43 42 43 44 43 43 42 36 33 35 37 38 41 43 47 46 43 42 44 45 45 45 46 48 50 53 56 63 69 69 66 67 69 68 67 65 62 60 59 60 62 62 61 60 59 59 59 57 56 56 56 56 56 55 56 59 62 64 66 68 68 67 67 69 69 69 69 69 68 66 65 65 67 69 70 70 69 67 65 65 64 64
43 43 43 43 44 44 45 45 45 46 42 33 33 38 39 41 42 44 48 47 39 38 43 46 45 45 45 45 46 47 51 58 64 64 63 65 68 68 69 71 71 69 67 64 64 65 64 62 61 61 60 58 57 57 57 57 56 55 56 58 60 61 62 66 68 66 66 68 69 69 69 70 70 69 67 65 66 67 70 71 71 70 69 68 67 66
44 44 44 45 45 45 46 45 45 46 40 32 35 41 42 42 42 43 48 44 33 34 42 44 43 43 42 41 41 44 48 52 54 54 57 61 65 67 70 72 73 74 74 71 69 67 67 67 66 64 61 59 57 56 57 57 56 56 56 58 61 62 63 66 69 68 67 68 69 69 69 69 70 71 70 69 66 66 68 70 71 72 71 71 70 69
45 44 44 44 44 44 45 44 44 45 39 33 37 42 43 45 45 46 46 38 31 36 44 44 42 42 40 38 39 42 45 46 46 47 49 53 58 63 67 70 72 73 74 75 74 71 69 68 67 65 62 61 59 57 57 58 58 57 57 58 60 62 63 66 69 70 70 68 68 70 70 70 70 70 70 70 68 66 66 68 69 70 71 71 71 71
46 46 45 44 44 45 45 44 45 45 38 33 38 42 43 44 46 45 41 37 35 41 46 46 45 45 44 43 41 41 42 42 42 43 44 46 51 55 60 64 68 70 71 72 74 74 73 70 68 66 64 63 63 62 61 61 60 59 59 59 60 62 63 66 69 72 73 71 68 68 69 69 69 68 68 69 68 67 66 65 66 67 69 70 71 71
47 47 46 45 44 45 46 46 45 40 32 31 37 42 43 44 45 44 42 40 41 43 46 47 46 45 46 46 46 45 44 44 44 43 42 43 45 49 53 57 61 65 68 69 71 73 75 75 73 71 69 67 65 65 64 63 61 61 61 63 63 63 64 64 66 70 74 74 73 71 71 71 70 67 66 67 68 68 68 66 65 65 66 67 68 69
47 47 46 44 45 47 48 47 42 35 33 37 41 42 43 44 43 43 43 41 40 42 44 45 45 45 46 46 47 49 48 46 45 44 43 42 42 44 49 52 55 58 61 63 66 69 72 74 75 74 73 71 68 66 65 63 62 62 63 66 67 67 65 64 66 68 71 73 73 73 74 74 73 69 66 66 68 69 69 68 66 65 65 65 66 67
46 45 44 45 46 47 47 45 41 37 39 43 44 42 43 43 42 42 42 40 40 42 43 43 43 44 44 44 46 48 48 47 45 43 43 43 43 42 44 47 51 54 55 57 60 63 66 68 70 72 73 73 71 69 66 65 63 62 63 66 68 69 68 68 68 70 72 72 71 71 72 73 73 71 67 67 68 70 71 71 69 66 65 64 63 64
45 45 46 46 46 47 46 44 41 40 42 43 43 43 43 43 43 43 42 41 41 41 42 43 43 42 42 43 44 46 47 47 46 44 42 42 43 44 44 45 47 49 51 53 54 56 59 62 65 67 70 71 72 70 68 66 63 62 62 64 66 67 66 64 62 64 68 70 68 69 71 71 72 72 69 67 68 71 73 73 72 69 66 64 62 61
46 47 48 47 47 48 45 41 41 42 43 43 44 43 43 42 42 42 41 41 41 41 42 43 44 43 42 42 42 44 45 46 46 45 43 41 42 44 45 46 47 47 50 53 55 56 57 58 60 63 65 66 68 68 68 67 64 62 61 61 61 61 61 61 58 58 62 65 66 68 70 68 67 68 68 68 69 71 73 74 73 71 69 66 64 63
48 49 49 49 49 49 45 41 43 45 44 43 43 42 41 41 41 41 42 42 43 44 44 44 44 43 42 42 42 42 44 45 46 46 44 42 43 44 46 47 47 47 48 50 52 54 56 58 58 59 60 62 64 66 66 66 65 63 60 59 59 58 58 58 58 56 55 58 62 65 66 64 62 63 65 66 67 69 71 72 73 72 71 69 67 66
51 51 51 50 50 50 45 42 43 44 43 42 42 42 43 43 43 43 43 43 44 45 45 45 45 44 43 43 43 43 44 46 47 47 47 46 46 46 47 48 48 46 44 41 38 39 44 49 53 55 57 60 62 64 66 66 65 63 59 57 57 57 54 52 53 52 50 51 54 56 58 58 57 58 61 63 64 66 67 68 69 70 70 69 69 68
54 53 51 50 51 49 43 40 42 44 43 43 43 44 45 45 45 44 43 43 44 45 45 46 46 45 44 44 44 45 45 45 45 45 45 46 47 47 47 47 49 50 48 45 41 37 35 36 40 45 50 53 55 57 59 61 63 64 61 55 52 50 48 46 47 48 47 47 47 48 50 52 53 54 55 58 60 63 64 66 67 67 68 68 68 68
54 52 50 50 50 47 43 43 46 48 46 44 45 47 47 47 47 46 44 45 46 45 45 45 46 45 45 44 44 44 45 46 45 44 42 43 46 48 48 47 48 50 51 52 51 48 44 40 37 38 41 44 48 50 51 53 55 58 59 55 49 46 46 48 50 50 50 49 49 48 48 49 51 52 53 54 56 58 60 62 64 66 67 67 68 68
Wind_Direction
230 230 230 232 234 236 239 241 244 244 242 242 243 242 241 243 244 243 244 243 243 244 244 245 247 247 248 249 248 243 240 240 242 245 246 246 247 247 246 246 248 249 247 242 241 244 246 247 247 249 248 247 247 248 247 245 246 251 254 256 258 258 256 255 255 254 253 254 254 253 253 253 253 254 255 257 258 259 260 262 265 267 267 267 266 265
229 230 231 233 236 238 239 240 241 239 239 241 243 242 241 242 244 244 244 243 242 243 243 244 246 247 247 249 249 246 243 242 243 245 246 246 246 246 246 246 246 248 249 246 244 244 246 247 248 249 250 249 248 248 249 248 246 247 251 255 258 259 258 257 256 254 255 255 254 254 254 255 256 257 258 260 262 263 264 265 266 267 267 265 263 261
227 229 231 233 234 235 236 236 236 237 237 239 241 243 243 243 245 245 245 244 243 244 244 244 246 247 247 249 250 250 247 245 245 246 245 244 245 246 246 247 247 247 248 249 248 248 247 248 249 249 250 252 252 251 250 249 248 248 250 252 255 257 257 257 256 256 256 255 254 254 255 256 257 258 259 260 262 264 266 267 266 265 264 262 260 260
230 231 233 234 233 232 233 233 234 235 236 236 238 241 243 243 244 245 246 246 245 245 244 244 246 246 246 248 249 251 250 248 246 246 246 245 244 245 247 248 248 248 248 248 249 250 250 249 249 249 251 253 255 255 254 252 251 251 252 252 251 252 253 255 256 258 258 257 255 255 254 255 257 258 259 260 261 264 264 265 266 265 263 261 261 262
233 234 233 232 232 233 232 232 233 234 235 236 238 241 243 244 245 246 247 246 245 245 243 243 245 245 244 246 248 249 250 249 247 245 245 245 244 244 246 249 249 249 248 247 246 248 250 251 251 252 252 252 254 256 259 259 256 253 251 250 250 250 252 254 256 257 258 257 258 257 256 256 257 258 259 260 262 263 263 264 265 265 265 265 263 263
233 232 230 229 231 232 233 233 233 234 236 237 238 240 244 245 246 246 246 246 246 246 245 245 247 246 245 246 247 247 249 249 247 246 245 245 244 244 247 249 250 250 249 247 246 246 248 250 252 253 254 254 253 254 258 260 259 256 252 250 250 251 253 255 255 256 256 257 259 259 259 259 258 257 258 260 261 262 262 264 265 266 267 267 266 264
233 231 230 229 230 231 232 233 234 234 236 237 240 242 244 245 246 246 246 247 248 248 247 246 248 249 246 245 245 246 248 248 247 246 246 246 246 246 248 250 250 251 251 249 247 245 246 248 250 252 254 256 256 255 255 255 256 257 257 256 255 254 254 254 255 256 256 258 259 260 260 260 259 258 260 261 260 260 261 263 265 267 269 268 266 265
233 232 232 231 230 231 231 232 234 235 236 239 241 242 242 243 245 246 246 247 248 249 248 245 246 249 247 244 244 246 247 248 248 247 247 248 249 248 248 249 250 250 250 250 249 247 246 247 248 250 252 255 257 258 257 255 254 255 258 260 260 258 256 256 257 257 257 258 258 259 259 259 260 261 262 262 260 260 261 262 263 265 266 267 267 265
234 233 233 233 232 231 231 232 233 235 237 239 240 240 241 243 244 245 246 248 248 248 247 246 245 247 248 246 245 245 246 247 248 248 248 249 251 250 248 247 247 247 246 247 249 248 248 249 250 251 252 253 255 258 260 260 258 256 255 256 259 260 260 260 260 259 259 258 258 259 259 259 260 261 261 261 260 260 261 262 262 262 263 264 265 265
233 232 232 231 231 231 232 232 232 234 236 238 239 239 240 242 243 244 245 246 247 248 247 246 246 247 248 247 246 245 245 246 248 250 250 250 251 252 249 246 244 244 245 245 247 248 249 251 253 254 255 256 256 258 261 262 262 260 257 255 255 257 260 261 262 261 261 261 261 260 259 260 260 260 260 260 259 259 260 262 263 262 261 261 261 262
231 231 230 230 231 232 231 231 231 232 234 234 236 238 239 240 241 242 243 243 245 246 246 245 247 249 249 248 247 248 248 249 250 250 250 251 252 253 251 247 245 244 245 247 248 249 250 251 253 254 256 259 261 263 263 263 263 263 261 259 256 256 257 259 261 262 263 263 263 262 261 260 260 260 260 260 260 259 259 260 263 263 262 260 260 261
232 231 230 230 232 232 230 229 230 230 231 232 233 235 237 238 238 239 240 240 241 243 244 244 247 249 250 250 250 251 252 251 251 251 250 251 253 253 250 248 247 246 247 249 251 253 254 254 254 256 258 260 262 264 265 265 264 263 262 262 260 258 257 258 259 261 263 264 264 264 263 261 261 261 260 259 259 260 260 260 261 263 263 262 261 261
233 234 233 232 231 230 229 228 228 227 227 229 231 232 234 236 237 238 238 238 240 243 244 245 247 248 251 253 253 253 253 253 253 252 252 251 251 251 249 247 247 249 251 254 256 258 260 259 259 259 260 260 261 261 263 263 263 262 261 261 262 261 260 259 259 260 262 263 264 265 265 265 264 263 261 259 258 260 261 260 260 261 263 264 262 261
233 232 231 231 230 230 230 230 231 231 230 231 232 233 234 236 238 240 241 241 242 245 246 246 247 247 249 252 254 255 255 254 254 254 254 252 250 249 249 246 247 251 254 257 259 261 262 262 262 260 260 259 259 259 260 260 261 261 260 259 260 261 261 261 260 260 260 261 262 264 265 266 266 265 263 261 259 260 261 261 261 260 261 263 263 263
236 236 234 235 236 236 236 236 237 237 235 235 235 236 236 237 240 243 244 245 246 248 248 246 245 247 249 252 254 256 256 255 255 255 254 252 250 249 248 248 248 251 254 256 258 260 261 262 262 261 259 258 258 257 258 259 259 260 260 258 258 259 260 260 260 261 261 261 261 262 263 265 266 265 265 264 263 263 262 262 262 261 260 261 262 263
237 238 239 242 242 241 241 241 240 238 235 233 233 234 236 238 241 245 247 249 249 249 248 246 245 249 253 254 254 255 256 256 254 253 253 253 252 251 250 250 251 252 254 256 258 259 260 261 261 261 259 257 255 253 254 256 257 257 258 258 257 257 257 258 260 261 261 261 260 260 261 263 264 265 265 265 265 265 265 262 261 261 261 261 261 262
240 241 241 240 238 237 238 240 240 240 238 236 234 235 238 240 241 244 246 248 249 249 248 247 247 249 251 252 251 252 255 256 254 252 253 254 254 254 253 254 254 255 256 257 258 259 260 260 260 261 260 257 254 250 249 250 252 253 255 255 255 255 256 257 258 260 260 260 260 260 261 262 264 265 265 265 265 265 264 263 261 261 262 262 262 262
244 245 244 241 240 239 236 235 236 237 238 238 238 240 242 241 240 243 246 247 248 250 251 250 249 249 250 251 250 251 253 255 255 254 253 253 254 255 256 256 256 256 257 258 258 259 259 260 261 261 259 257 254 250 246 245 245 248 252 254 255 255 256 256 256 257 258 258 259 260 262 264 265 266 266 265 265 265 264 263 262 261 261 262 262 262
242 241 240 239 240 240 236 233 233 234 236 236 237 238 239 238 237 239 243 245 247 250 252 253 252 252 251 251 251 250 251 254 256 255 253 253 254 255 256 256 256 255 255 256 258 258 259 259 261 262 261 258 255 250 246 243 243 245 249 253 255 256 256 255 254 255 256 256 257 259 262 264 266 267 267 267 267 266 265 264 263 261 261 260 260 261
237 238 237 235 234 234 233 231 231 232 234 235 234 234 235 238 240 240 242 244 246 249 252 254 254 253 253 254 252 250 251 254 256 256 254 253 253 254 255 256 256 254 254 254 255 256 257 257 258 260 261 260 257 253 249 245 245 246 248 251 253 255 256 255 254 255 255 256 256 257 260 262 264 266 268 269 269 268 267 266 264 262 261 260 259 260
234 235 235 233 232 231 231 232 234 234 235 236 235 234 234 235 237 240 242 244 246 248 251 253 255 256 257 258 256 253 252 253 254 255 254 253 252 253 254 255 255 255 254 254 254 254 254 255 257 258 259 259 259 257 252 249 248 248 250 252 253 254 255 255 254 254 255 256 255 256 257 260 262 265 267 269 270 270 270 269 267 265 263 261 260 260
234 235 235 234 234 233 234 236 237 236 236 237 238 238 237 235 235 238 240 241 244 247 249 252 254 257 257 257 256 252 250 251 252 253 253 253 252 252 253 253 254 253 253 253 253 253 253 255 256 258 259 259 259 259 257 253 250 249 251 253 254 254 254 254 254 254 254 255 256 256 257 259 261 263 265 267 270 272 273 272 269 267 264 262 261 261
234 234 234 234 235 235 236 236 235 234 234 235 236 236 236 236 236 237 239 240 242 245 246 248 250 252 252 252 252 249 246 248 251 252 252 252 250 248 247 248 250 251 251 252 252 253 255 255 256 257 258 258 257 258 259 257 253 251 251 252 253 254 253 253 253 253 253 254 256 257 259 260 261 262 263 266 269 273 274 273 270 267 265 263 262 261
232 233 233 234 236 236 235 235 235 235 234 234 235 234 235 236 237 238 239 240 242 242 242 244 246 247 247 248 249 247 245 245 247 249 250 249 246 244 243 244 247 249 251 252 253 254 255 255 256 257 258 258 258 258 259 259 257 254 253 253 254 254 253 252 252 252 253 253 255 257 259 261 262 263 263 265 268 271 272 272 270 267 265 263 262 261
235 235 233 232 234 234 233 233 233 233 234 236 237 237 238 239 240 241 240 240 241 241 241 243 245 245 245 245 245 245 244 243 244 246 247 247 245 243 243 243 245 248 251 253 254 255 255 255 256 257 258 260 261 262 262 261 259 257 255 255 256 256 255 253 252 252 252 252 254 256 258 260 262 263 264 265 267 269 270 270 270 269 267 264 263 262
239 238 236 235 235 234 234 234 235 237 239 240 239 238 239 239 240 241 241 241 242 242 242 244 246 246 245 243 243 244 243 243 243 244 245 246 245 244 245 245 245 247 250 253 254 256 257 257 257 257 259 261 263 264 264 263 262 259 257 256 257 258 258 256 253 252 252 252 252 254 257 259 260 262 262 263 265 267 268 269 269 270 269 267 265 264
236 236 236 237 238 239 239 241 243 244 243 243 242 241 240 240 240 241 242 243 245 246 245 245 247 249 247 244 242 242 241 241 241 242 244 246 247 247 247 247 247 248 250 252 254 255 256 258 258 258 259 260 262 264 265 265 264 262 260 257 255 256 258 258 256 254 252 251 251 253 255 257 258 259 260 261 262 264 266 267 267 269 269 268 266 265
233 234 234 235 237 237 238 240 241 242 243 244 244 242 241 241 240 241 243 245 246 249 248 247 248 251 250 246 243 241 241 241 241 242 245 247 248 249 249 249 250 250 251 253 254 254 256 257 258 259 259 260 262 264 265 266 266 264 262 258 254 252 254 257 258 257 254 252 251 251 253 255 256 257 257 258 259 262 263 264 264 265 266 266 266 266
233 235 235 235 236 236 236 237 238 239 240 241 242 241 240 241 242 242 244 245 247 250 251 249 249 251 252 249 245 242 242 243 243 243 245 246 247 248 249 250 250 250 251 252 254 254 254 255 257 259 260 261 263 265 267 268 268 266 263 259 253 250 250 253 256 258 258 256 253 252 252 253 255 256 256 257 258 259 260 260 260 261 263 264 265 264
233 234 234 234 235 234 234 235 236 237 239 239 240 240 239 240 241 242 243 244 246 248 250 250 249 250 251 251 247 243 243 244 243 242 243 244 245 247 249 249 248 249 251 252 252 252 253 254 256 258 261 262 264 266 267 267 267 266 264 260 254 250 248 249 252 255 258 259 258 255 254 253 254 254 255 256 256 256 256 256 256 257 258 260 261 262
233 233 234 235 235 234 234 236 237 238 240 240 240 240 240 240 241 242 243 243 245 248 249 249 250 249 250 252 250 245 242 243 242 241 241 242 244 247 249 250 249 249 251 251 251 251 252 254 256 258 260 262 264 265 265 265 264 264 264 262 258 254 249 247 249 252 255 257 259 259 257 256 255 254 254 254 254 254 253 253 252 253 254 256 257 259
233 234 234 236 237 237 237 239 240 241 242 242 241 242 243 244 244 245 246 246 247 250 251 251 251 249 246 251 252 247 243 242 240 239 240 240 242 245 247 249 250 250 250 250 251 251 252 253 254 255 256 258 261 263 264 264 263 263 263 261 260 258 253 249 248 249 251 254 256 258 259 258 257 256 255 254 252 252 251 251 251 250 251 252 253 256
233 234 234 235 237 237 237 239 241 242 243 243 243 244 246 247 247 247 248 248 249 252 253 254 254 252 249 251 253 249 245 245 243 241 241 240 241 242 244 246 247 247 246 247 249 250 251 252 252 252 253 256 258 260 262 263 262 263 263 262 260 259 257 253 250 248 248 250 253 255 258 259 259 258 257 255 254 252 251 250 251 250 250 251 252 254
232 233 233 233 235 235 236 237 239 240 242 244 246 247 247 248 249 249 250 251 252 254 256 257 258 257 255 255 254 252 250 250 250 247 245 242 240 240 241 242 244 243 243 244 247 249 249 250 250 250 252 254 255 256 258 260 261 261 261 261 259 258 256 255 252 249 248 248 250 251 254 256 257 258 258 257 256 255 254 253 253 252 253 253 253 254
230 231 232 232 232 234 235 236 237 240 243 245 246 247 248 250 252 253 253 253 253 255 257 258 258 258 257 256 256 255 254 252 251 249 247 245 243 241 241 241 241 242 242 243 247 249 249 249 248 248 249 250 251 253 255 256 256 254 255 258 258 257 255 254 253 251 250 249 249 250 251 252 254 255 256 256 256 256 256 256 256 256 256 255 255 255
227 229 231 231 231 233 234 235 238 241 243 243 244 246 249 251 254 255 254 253 253 256 258 259 259 260 260 259 258 258 257 254 250 247 245 245 245 243 242 240 239 241 243 244 247 247 247 248 247 245 245 246 249 252 253 253 252 251 252 256 258 258 257 256 256 256 254 251 250 251 252 252 252 252 253 254 255 255 255 256 258 259 259 259 259 258
224 226 228 231 232 234 236 238 240 242 242 241 243 248 250 251 253 255 255 252 252 255 259 262 263 263 263 263 260 259 258 255 251 245 242 244 247 246 245 242 241 244 246 246 246 245 244 246 247 245 244 246 249 250 250 251 252 253 255 257 259 259 259 259 259 258 258 256 253 252 253 254 254 253 252 253 253 254 254 255 257 259 260 260 261 261
223 225 226 230 232 234 237 239 241 242 241 240 243 247 251 253 255 257 258 255 252 257 262 265 266 266 264 263 261 259 257 255 251 246 243 246 249 250 248 247 246 246 247 246 246 245 244 246 247 246 246 247 248 248 248 249 252 255 259 261 261 260 259 259 258 257 257 258 257 255 254 255 256 256 255 254 253 253 254 255 256 258 259 259 260 261
224 226 226 229 232 234 237 239 240 241 241 239 243 247 249 253 256 260 262 260 258 261 265 265 265 264 263 263 263 262 260 258 253 248 245 247 250 250 250 249 247 247 246 246 247 247 247 247 248 248 247 246 247 247 249 252 254 257 260 263 263 261 259 257 257 257 256 258 259 260 258 257 257 258 257 256 254 253 253 254 255 257 258 259 259 260
226 227 228 231 233 234 238 240 241 242 241 238 244 250 252 254 257 259 261 265 269 269 267 266 264 261 259 260 261 262 263 263 260 255 250 248 248 248 249 249 249 248 247 246 247 248 248 248 248 249 247 245 246 249 252 254 255 257 260 262 262 261 259 258 258 258 257 258 259 260 261 260 260 260 259 258 256 254 253 253 255 256 258 259 259 259
230 231 232 234 236 238 242 243 245 245 242 238 244 250 254 257 260 261 263 270 275 270 265 264 262 261 259 258 258 260 263 266 266 263 258 253 249 247 248 249 250 250 249 248 247 248 248 248 248 248 247 247 249 251 253 255 256 257 260 262 263 262 260 260 261 260 259 258 258 258 259 260 261 261 260 259 258 256 255 254 254 255 257 258 259 260
233 234 235 236 238 241 244 246 249 246 240 238 247 253 257 262 265 265 267 271 272 268 266 265 264 263 260 255 254 257 260 263 265 266 264 260 254 249 249 249 250 251 250 249 248 248 249 249 248 248 250 252 253 254 254 255 255 256 258 261 263 263 262 260 260 260 260 258 256 256 257 259 259 259 259 258 257 257 257 256 255 254 255 256 258 259
235 237 239 240 242 245 245 247 249 247 242 244 252 256 258 262 265 267 269 272 273 272 269 267 265 262 257 252 251 252 256 260 263 264 265 264 260 254 251 251 251 252 252 251 250 249 249 250 251 252 254 256 257 256 255 255 256 256 256 258 261 263 264 262 260 260 260 259 257 256 257 258 259 258 257 256 256 256 257 257 256 255 254 254 255 257
234 237 241 243 244 245 246 248 251 252 252 252 253 254 256 260 264 268 272 274 275 274 270 268 265 261 257 254 251 251 255 259 261 262 262 262 261 259 256 254 254 254 254 254 253 252 251 252 252 253 255 256 257 257 256 256 257 257 257 258 260 262 264 263 261 259 259 260 260 260 258 257 257 256 256 256 256 257 258 258 258 257 256 255 255 255
236 239 242 243 244 245 248 251 254 255 255 255 255 256 259 262 265 269 271 273 274 274 271 268 265 261 259 256 252 251 254 257 259 261 260 259 259 259 258 258 258 257 257 256 256 255 254 254 254 255 255 256 256 257 257 257 258 259 260 260 261 263 265 266 265 262 260 258 259 260 259 257 256 255 255 256 256 256 257 258 258 259 258 258 257 256
238 240 240 240 242 244 247 252 255 256 255 257 259 259 260 263 266 268 271 273 275 275 272 269 265 262 260 258 254 253 254 256 258 259 259 258 259 259 260 260 260 260 259 258 258 258 258 257 257 257 257 257 257 257 257 257 258 259 260 261 262 263 265 266 265 263 260 255 253 254 255 255 254 254 254 254 254 255 256 257 258 259 260 260 260 259
238 239 240 241 243 246 250 255 257 255 255 256 258 260 262 266 269 272 274 274 275 276 275 270 266 262 261 259 257 255 255 256 256 257 258 257 257 259 260 261 261 263 263 260 258 257 257 257 258 258 258 258 259 259 258 258 257 257 258 259 260 261 262 261 260 259 254 248 246 248 249 248 248 248 249 251 252 253 255 256 258 259 260 261 262 262
239 240 242 244 246 250 253 254 253 253 254 255 258 261 264 267 269 271 273 274 275 277 276 271 266 263 261 260 258 257 257 256 254 255 257 256 256 257 258 259 260 263 263 260 258 257 257 256 257 257 258 258 258 259 259 258 258 257 256 257 259 261 261 260 260 261 258 252 249 249 248 248 246 243 244 246 249 251 254 255 257 258 260 261 262 263
240 242 244 246 248 250 252 252 253 255 255 256 258 261 263 265 268 269 272 274 276 277 275 271 266 263 261 261 260 260 260 259 256 255 256 256 255 256 257 257 256 257 258 257 256 256 256 256 256 257 257 257 256 257 258 259 259 257 257 259 262 263 262 260 259 261 262 259 257 254 253 254 253 250 247 246 246 248 251 253 255 257 258 259 261 262
242 244 246 248 249 251 253 253 255 255 255 255 259 262 263 266 268 269 272 274 276 276 275 271 266 263 262 262 263 263 264 263 261 259 258 258 256 256 258 256 253 251 252 253 255 255 252 251 251 252 253 254 254 253 253 255 257 257 257 260 261 259 258 258 259 260 261 260 260 258 257 257 258 257 256 253 252 252 252 252 253 255 256 257 258 259
244 246 248 250 251 253 253 252 252 254 255 256 259 262 265 268 270 270 272 273 274 275 275 272 267 263 262 262 262 264 265 265 264 263 263 262 259 258 258 257 255 254 252 253 255 255 253 251 248 245 245 246 247 248 248 250 252 253 254 255 256 255 256 258 258 258 259 259 258 258 258 258 258 258 259 258 258 258 258 257 257 258 258 259 259 260
Height
5716 5716 5715 5721 5730 5738 5745 5748 5754 5761 5759 5760 5764 5766 5767 5769 5772 5779 5784 5789 5791 5788 5789 5793 5794 5796 5798 5801 5807 5813 5815 5816 5818 5819 5821 5824 5826 5829 5831 5833 5834 5836 5840 5843 5843 5842 5842 5843 5844 5845 5846 5847 5848 5850 5851 5853 5855 5855 5855 5856 5857 5857 5857 5858 5858 5858 5859 5859 5859 5859 5860 5860 5861 5861 5862 5863 5863 5863 5863 5864 5864 5865 5866 5866 5866 5865
5708 5706 5710 5723 5734 5740 5743 5745 5749 5751 5751 5754 5755 5756 5760 5764 5768 5774 5777 5781 5784 5781 5784 5789 5788 5790 5793 5794 5798 5802 5807 5811 5812 5814 5816 5819 5821 5824 5826 5828 5830 5832 5836 5838 5839 5840 5840 5841 5842 5841 5842 5843 5845 5847 5847 5849 5850 5851 5852 5854 5854 5853 5854 5854 5854 5855 5855 5856 5856 5856 5856 5857 5858 5859 5860 5861 5861 5861 5861 5861 5861 5862 5862 5862 5862 5861
5697 5697 5709 5724 5732 5735 5736 5737 5739 5741 5745 5748 5747 5748 5753 5760 5765 5768 5770 5775 5776 5774 5780 5785 5781 5784 5788 5788 5790 5793 5798 5805 5807 5809 5812 5814 5816 5818 5821 5823 5826 5829 5831 5833 5835 5836 5837 5838 5839 5838 5839 5840 5842 5843 5843 5845 5846 5848 5849 5851 5851 5850 5850 5850 5850 5851 5851 5852 5852 5852 5853 5854 5855 5856 5857 5858 5858 5858 5859 5858 5857 5858 5858 5858 5858 5857
5689 5698 5714 5723 5724 5725 5726 5728 5730 5733 5737 5739 5740 5741 5746 5756 5759 5761 5766 5768 5768 5769 5775 5778 5774 5776 5780 5781 5783 5786 5790 5797 5802 5804 5807 5809 5812 5815 5817 5819 5822 5824 5827 5829 5830 5831 5832 5833 5834 5835 5837 5838 5838 5838 5839 5841 5843 5845 5846 5846 5846 5846 5845 5846 5846 5847 5847 5847 5847 5848 5849 5850 5851 5853 5853 5854 5855 5855 5855 5854 5853 5854 5853 5854 5854 5854
5688 5702 5713 5714 5714 5716 5718 5720 5723 5726 5729 5732 5736 5737 5743 5752 5753 5757 5762 5760 5760 5761 5767 5771 5765 5765 5773 5775 5777 5781 5783 5789 5795 5799 5801 5804 5809 5811 5813 5814 5817 5819 5821 5824 5826 5827 5827 5828 5830 5831 5833 5835 5835 5835 5836 5838 5839 5840 5841 5841 5841 5841 5842 5843 5844 5844 5843 5843 5843 5844 5845 5847 5848 5849 5849 5850 5851 5851 5851 5850 5850 5849 5849 5850 5851 5851
5686 5698 5703 5704 5707 5708 5710 5714 5717 5722 5725 5728 5730 5735 5743 5747 5748 5752 5753 5752 5752 5753 5761 5766 5756 5756 5768 5770 5771 5777 5777 5781 5789 5793 5796 5801 5804 5807 5808 5810 5812 5813 5816 5818 5822 5823 5823 5824 5825 5827 5828 5830 5831 5832 5833 5833 5833 5834 5834 5835 5836 5837 5839 5840 5840 5840 5840 5840 5840 5841 5842 5843 5844 5844 5845 5847 5848 5847 5846 5846 5846 5845 5846 5847 5848 5848
5681 5691 5694 5697 5700 5701 5704 5707 5712 5718 5720 5720 5727 5737 5742 5741 5741 5744 5745 5745 5744 5745 5756 5759 5748 5750 5760 5762 5766 5771 5770 5774 5782 5787 5792 5797 5799 5802 5804 5806 5807 5808 5811 5813 5816 5819 5820 5821 5822 5823 5824 5825 5826 5828 5829 5829 5828 5828 5829 5830 5831 5833 5834 5835 5836 5836 5836 5837 5837 5838 5838 5839 5839 5840 5842 5843 5843 5843 5842 5842 5842 5842 5843 5843 5843 5844
5678 5686 5685 5690 5694 5693 5696 5701 5708 5714 5713 5716 5730 5735 5733 5734 5735 5737 5739 5737 5737 5741 5745 5746 5743 5743 5746 5755 5762 5764 5764 5769 5775 5781 5789 5793 5794 5797 5800 5801 5803 5804 5806 5808 5810 5814 5815 5816 5817 5818 5820 5820 5821 5822 5823 5824 5824 5824 5825 5825 5826 5826 5828 5830 5831 5831 5832 5833 5833 5834 5834 5835 5836 5837 5839 5839 5838 5838 5838 5838 5839 5839 5839 5839 5839 5840
5675 5677 5677 5684 5686 5684 5690 5698 5705 5709 5708 5715 5726 5724 5725 5730 5730 5731 5731 5729 5731 5732 5729 5734 5739 5734 5735 5749 5757 5756 5760 5764 5770 5778 5785 5789 5789 5791 5794 5797 5799 5800 5802 5803 5805 5808 5810 5811 5813 5814 5815 5816 5816 5817 5818 5819 5820 5820 5821 5821 5821 5821 5822 5824 5825 5826 5827 5828 5829 5829 5830 5831 5832 5833 5834 5834 5834 5834 5833 5833 5834 5834 5835 5835 5834 5835
5665 5667 5672 5676 5675 5678 5689 5696 5700 5703 5705 5712 5718 5717 5721 5724 5723 5724 5722 5723 5726 5718 5717 5727 5732 5727 5730 5743 5748 5748 5755 5761 5768 5776 5781 5785 5785 5785 5789 5792 5794 5796 5796 5798 5799 5801 5804 5806 5808 5808 5809 5810 5812 5813 5814 5814 5815 5815 5816 5816 5816 5816 5817 5818 5819 5820 5821 5823 5824 5824 5825 5826 5827 5829 5829 5829 5829 5830 5829 5829 5829 5830 5830 5830 5829 5830
5655 5661 5665 5665 5669 5678 5686 5690 5693 5697 5701 5707 5710 5711 5714 5714 5716 5717 5714 5719 5716 5704 5709 5722 5725 5723 5722 5732 5741 5743 5753 5762 5766 5770 5775 5779 5780 5781 5784 5786 5788 5789 5790 5792 5793 5795 5798 5800 5801 5802 5804 5806 5808 5808 5809 5810 5810 5809 5810 5810 5811 5812 5812 5813 5813 5814 5816 5817 5818 5819 5819 5821 5822 5823 5824 5823 5824 5825 5825 5825 5825 5824 5824 5824 5825 5825
5650 5653 5655 5660 5667 5673 5678 5682 5685 5689 5693 5697 5700 5704 5706 5704 5707 5707 5705 5708 5701 5694 5708 5719 5721 5715 5707 5722 5739 5741 5750 5760 5761 5765 5769 5773 5776 5777 5779 5780 5782 5783 5784 5786 5787 5788 5791 5793 5796 5797 5799 5802 5802 5803 5804 5805 5805 5805 5804 5805 5805 5806 5807 5808 5808 5809 5810 5810 5811 5812 5813 5814 5816 5817 5818 5818 5819 5820 5820 5821 5820 5819 5819 5820 5820 5820
5642 5645 5651 5655 5659 5664 5669 5673 5675 5679 5684 5688 5692 5695 5696 5695 5696 5694 5693 5695 5690 5693 5708 5716 5716 5705 5695 5715 5734 5736 5746 5754 5755 5760 5764 5767 5771 5772 5773 5775 5777 5778 5778 5780 5781 5782 5783 5786 5790 5792 5793 5795 5796 5797 5798 5798 5799 5799 5799 5799 5799 5800 5801 5802 5803 5803 5804 5804 5804 5805 5806 5808 5810 5811 5812 5813 5814 5815 5815 5816 5815 5815 5815 5815 5815 5816
5634 5637 5641 5644 5650 5657 5662 5665 5668 5673 5678 5681 5684 5687 5687 5687 5686 5683 5685 5688 5686 5692 5705 5712 5709 5691 5684 5708 5726 5731 5741 5746 5749 5755 5757 5761 5764 5766 5769 5771 5771 5773 5773 5775 5776 5776 5777 5779 5782 5785 5786 5788 5789 5790 5791 5791 5791 5792 5793 5793 5793 5795 5796 5796 5797 5798 5798 5799 5799 5799 5800 5801 5803 5804 5806 5806 5808 5809 5809 5810 5810 5810 5810 5810 5810 5811
5628 5630 5635 5641 5650 5657 5659 5663 5667 5671 5674 5675 5680 5683 5679 5680 5680 5677 5680 5683 5684 5692 5699 5702 5695 5678 5679 5707 5725 5728 5731 5737 5745 5750 5749 5753 5758 5761 5765 5765 5766 5768 5768 5769 5770 5770 5772 5773 5774 5776 5779 5781 5782 5783 5784 5784 5784 5785 5786 5786 5787 5789 5790 5790 5791 5792 5793 5793 5794 5794 5794 5795 5796 5798 5799 5800 5801 5803 5803 5804 5804 5804 5804 5804 5805 5806
5622 5625 5636 5645 5651 5654 5657 5662 5664 5664 5664 5668 5673 5672 5669 5675 5679 5676 5676 5678 5682 5686 5685 5686 5684 5677 5682 5704 5720 5722 5723 5731 5739 5742 5741 5745 5752 5755 5757 5759 5762 5762 5763 5763 5763 5764 5766 5766 5767 5768 5771 5774 5776 5777 5777 5777 5777 5778 5779 5780 5782 5783 5784 5784 5786 5786 5787 5788 5788 5788 5788 5789 5789 5791 5793 5794 5795 5796 5797 5797 5798 5798 5798 5799 5800 5800
5617 5624 5636 5639 5641 5646 5652 5655 5655 5654 5657 5662 5663 5661 5667 5676 5676 5672 5670 5672 5675 5671 5669 5675 5680 5680 5681 5693 5710 5718 5720 5723 5728 5734 5738 5740 5745 5747 5749 5754 5755 5755 5756 5756 5756 5757 5758 5759 5760 5762 5764 5766 5769 5770 5770 5771 5771 5771 5771 5773 5775 5776 5777 5779 5779 5780 5781 5781 5782 5782 5782 5783 5784 5785 5786 5787 5788 5789 5789 5790 5791 5792 5793 5793 5794 5794
5616 5624 5631 5631 5634 5642 5646 5646 5645 5646 5651 5654 5655 5661 5670 5670 5666 5665 5664 5665 5666 5660 5660 5668 5673 5677 5676 5682 5702 5716 5715 5714 5720 5729 5733 5734 5737 5740 5742 5746 5747 5747 5748 5748 5749 5751 5752 5753 5754 5756 5758 5759 5761 5762 5763 5765 5765 5764 5765 5766 5767 5769 5771 5773 5773 5774 5775 5775 5776 5777 5777 5778 5779 5779 5780 5781 5781 5782 5782 5783 5785 5786 5787 5788 5787 5787
5612 5617 5621 5625 5630 5635 5636 5635 5635 5639 5644 5646 5651 5659 5660 5655 5657 5661 5657 5658 5659 5655 5656 5662 5666 5670 5669 5675 5697 5710 5711 5711 5715 5720 5725 5728 5731 5732 5735 5737 5737 5739 5741 5741 5744 5745 5746 5747 5748 5749 5750 5751 5753 5754 5756 5758 5758 5758 5759 5759 5760 5763 5765 5766 5767 5768 5769 5769 5770 5771 5772 5772 5773 5774 5774 5775 5775 5775 5775 5777 5778 5779 5780 5781 5780 5780
5606 5609 5613 5619 5623 5624 5624 5624 5626 5632 5637 5639 5646 5651 5649 5649 5654 5656 5652 5653 5654 5653 5654 5656 5657 5659 5662 5673 5691 5703 5708 5710 5709 5710 5716 5721 5724 5724 5726 5727 5728 5731 5734 5735 5737 5738 5739 5741 5741 5742 5743 5744 5745 5746 5748 5750 5751 5752 5753 5753 5754 5756 5758 5760 5761 5762 5763 5764 5764 5765 5766 5766 5767 5768 5768 5769 5769 5769 5770 5771 5771 5772 5773 5773 5773 5773
5598 5601 5606 5612 5614 5613 5613 5616 5622 5629 5631 5632 5636 5640 5642 5644 5648 5648 5647 5649 5650 5649 5650 5650 5648 5651 5660 5671 5683 5698 5706 5704 5701 5701 5705 5711 5715 5716 5717 5718 5719 5723 5726 5728 5730 5731 5732 5733 5734 5735 5736 5737 5738 5738 5741 5743 5744 5745 5746 5746 5748 5749 5750 5752 5755 5756 5757 5758 5758 5759 5760 5761 5761 5762 5763 5763 5763 5764 5764 5764 5765 5765 5766 5766 5766 5766
5593 5596 5601 5604 5604 5606 5611 5615 5621 5625 5625 5627 5630 5634 5638 5641 5643 5641 5638 5642 5646 5644 5645 5646 5643 5647 5656 5663 5674 5691 5698 5695 5693 5694 5695 5701 5706 5708 5709 5709 5711 5715 5717 5719 5721 5723 5724 5726 5728 5728 5728 5730 5731 5731 5733 5734 5735 5737 5738 5739 5740 5741 5743 5745 5747 5749 5751 5752 5752 5753 5754 5755 5756 5756 5757 5757 5758 5758 5759 5759 5758 5759 5758 5759 5759 5759
5587 5590 5594 5596 5598 5604 5609 5611 5614 5616 5619 5621 5621 5626 5632 5633 5634 5633 5631 5639 5643 5640 5641 5642 5638 5641 5649 5655 5667 5682 5689 5688 5688 5688 5689 5692 5695 5699 5701 5701 5703 5706 5708 5710 5712 5715 5717 5718 5720 5721 5721 5722 5723 5724 5725 5725 5727 5728 5729 5731 5732 5734 5736 5737 5739 5741 5743 5745 5747 5748 5748 5749 5750 5750 5751 5751 5752 5752 5753 5752 5752 5751 5751 5752 5753 5752
5580 5583 5588 5591 5594 5599 5601 5603 5607 5609 5611 5612 5613 5620 5624 5623 5627 5628 5629 5637 5636 5631 5635 5634 5628 5633 5643 5652 5664 5674 5680 5682 5682 5682 5682 5682 5685 5689 5692 5694 5696 5698 5699 5701 5703 5706 5708 5710 5712 5713 5713 5714 5714 5716 5716 5717 5718 5720 5721 5723 5724 5727 5729 5729 5731 5733 5736 5738 5740 5741 5742 5743 5744 5744 5745 5746 5746 5746 5746 5746 5746 5745 5745 5746 5746 5746
5575 5577 5582 5585 5585 5588 5591 5594 5597 5600 5603 5605 5609 5616 5618 5620 5624 5623 5625 5629 5620 5618 5628 5624 5617 5626 5639 5650 5660 5667 5672 5675 5675 5676 5675 5674 5677 5681 5684 5688 5690 5690 5691 5692 5693 5696 5699 5702 5704 5706 5706 5706 5706 5707 5708 5709 5711 5713 5714 5716 5717 5720 5721 5722 5724 5725 5728 5731 5732 5734 5735 5736 5737 5737 5738 5739 5739 5740 5740 5739 5739 5739 5739 5740 5739 5739
5569 5572 5576 5577 5576 5579 5583 5588 5594 5598 5601 5602 5605 5610 5613 5615 5617 5615 5617 5615 5607 5613 5621 5615 5612 5623 5635 5646 5654 5660 5665 5669 5669 5668 5667 5667 5671 5673 5675 5678 5681 5682 5683 5683 5684 5687 5690 5693 5697 5698 5698 5698 5698 5699 5700 5702 5704 5706 5708 5710 5711 5712 5713 5715 5716 5718 5720 5722 5724 5726 5727 5728 5729 5730 5731 5732 5732 5733 5733 5733 5733 5733 5733 5733 5733 5734
5562 5565 5569 5570 5572 5577 5583 5591 5596 5597 5597 5597 5600 5605 5607 5608 5609 5608 5606 5603 5604 5611 5612 5609 5613 5619 5626 5639 5649 5653 5658 5660 5661 5662 5661 5662 5664 5665 5665 5667 5669 5672 5675 5676 5677 5679 5682 5685 5687 5690 5690 5689 5690 5692 5693 5695 5697 5700 5702 5703 5704 5705 5706 5706 5708 5710 5712 5713 5716 5717 5718 5719 5720 5721 5723 5725 5725 5726 5726 5726 5727 5727 5727 5727 5727 5728
5555 5558 5563 5566 5570 5575 5582 5587 5588 5588 5589 5591 5593 5597 5599 5601 5601 5600 5597 5599 5605 5604 5599 5607 5615 5610 5615 5631 5640 5645 5649 5651 5653 5656 5656 5655 5655 5655 5656 5657 5661 5665 5668 5669 5669 5672 5675 5677 5678 5680 5681 5681 5683 5684 5685 5687 5690 5692 5694 5695 5696 5697 5698 5699 5700 5702 5703 5705 5708 5709 5710 5710 5712 5713 5715 5717 5718 5719 5719 5720 5720 5720 5720 5720 5721 5722
5551 5555 5561 5563 5566 5571 5576 5578 5578 5580 5582 5582 5584 5587 5590 5592 5592 5592 5592 5596 5600 5594 5592 5604 5608 5603 5607 5619 5628 5637 5641 5641 5645 5649 5648 5647 5647 5647 5648 5650 5653 5657 5660 5661 5662 5665 5668 5668 5669 5670 5671 5674 5676 5676 5677 5679 5681 5684 5685 5687 5688 5689 5691 5692 5693 5694 5695 5697 5700 5701 5702 5703 5704 5706 5707 5708 5710 5711 5712 5712 5712 5713 5713 5714 5715 5716
5548 5552 5556 5557 5561 5566 5568 5570 5572 5573 5573 5574 5576 5579 5582 5583 5584 5585 5586 5589 5591 5587 5588 5596 5598 5596 5601 5607 5617 5631 5633 5632 5636 5639 5639 5641 5641 5640 5640 5642 5645 5649 5651 5652 5654 5657 5659 5660 5661 5661 5663 5666 5667 5668 5669 5670 5672 5675 5677 5678 5679 5681 5683 5685 5686 5687 5688 5690 5691 5692 5694 5696 5697 5698 5699 5700 5701 5702 5703 5704 5705 5706 5707 5708 5709 5709
5545 5548 5551 5553 5556 5559 5563 5565 5567 5566 5567 5568 5569 5571 5574 5577 5577 5579 5581 5585 5585 5583 5586 5590 5588 5590 5597 5602 5611 5621 5622 5621 5624 5627 5630 5633 5633 5632 5631 5633 5637 5642 5644 5644 5645 5649 5651 5652 5653 5653 5655 5658 5659 5660 5661 5661 5663 5666 5669 5671 5672 5672 5675 5676 5678 5680 5681 5682 5683 5684 5686 5687 5689 5690 5691 5692 5693 5694 5695 5696 5697 5698 5699 5700 5701 5702
5541 5544 5547 5549 5551 5555 5560 5561 5560 5561 5561 5560 5562 5567 5571 5573 5575 5577 5579 5581 5581 5579 5582 5582 5579 5586 5598 5602 5602 5608 5610 5610 5613 5617 5620 5623 5625 5625 5624 5626 5630 5635 5637 5636 5636 5639 5641 5643 5644 5646 5647 5649 5651 5651 5652 5652 5654 5656 5659 5662 5664 5665 5667 5669 5670 5672 5673 5674 5675 5676 5677 5679 5681 5682 5683 5684 5685 5686 5687 5688 5689 5690 5691 5692 5693 5694
5538 5540 5543 5545 5547 5552 5554 5553 5554 5555 5552 5552 5559 5567 5569 5570 5572 5573 5573 5575 5576 5576 5575 5575 5576 5586 5596 5596 5594 5599 5604 5605 5607 5610 5613 5616 5618 5618 5618 5620 5623 5626 5628 5627 5626 5629 5632 5633 5636 5637 5639 5641 5643 5643 5644 5644 5644 5646 5649 5652 5654 5657 5659 5660 5662 5663 5664 5666 5667 5668 5669 5670 5672 5674 5674 5676 5677 5678 5679 5681 5681 5682 5682 5683 5684 5685
5534 5536 5538 5541 5543 5545 5546 5546 5547 5545 5545 5551 5561 5565 5564 5565 5566 5567 5568 5571 5573 5572 5571 5572 5576 5581 5586 5588 5589 5593 5597 5599 5603 5605 5606 5608 5610 5610 5611 5613 5614 5616 5618 5617 5617 5620 5622 5624 5627 5629 5631 5633 5634 5635 5636 5636 5636 5637 5639 5641 5644 5647 5649 5651 5653 5654 5655 5657 5658 5659 5660 5662 5663 5665 5666 5667 5669 5670 5671 5672 5673 5674 5675 5675 5676 5677
5529 5531 5533 5536 5538 5538 5539 5540 5539 5539 5545 5554 5558 5558 5559 5561 5562 5563 5565 5567 5568 5567 5566 5567 5569 5573 5577 5580 5583 5585 5589 5594 5598 5599 5599 5600 5602 5603 5603 5604 5605 5606 5608 5609 5610 5612 5614 5616 5618 5621 5622 5624 5626 5627 5628 5629 5629 5629 5630 5632 5634 5637 5639 5641 5643 5645 5647 5648 5649 5650 5652 5653 5655 5656 5657 5658 5660 5661 5662 5663 5664 5665 5666 5667 5668 5669
5525 5526 5528 5531 5532 5532 5534 5534 5534 5539 5546 5550 5552 5554 5556 5558 5558 5557 5558 5561 5563 5561 5559 5560 5563 5567 5571 5574 5577 5580 5583 5587 5587 5587 5589 5591 5593 5594 5594 5595 5597 5597 5599 5601 5603 5604 5606 5608 5609 5611 5613 5615 5617 5618 5620 5621 5622 5622 5623 5624 5626 5628 5631 5633 5634 5636 5638 5640 5641 5642 5643 5644 5645 5646 5648 5649 5651 5652 5653 5654 5655 5656 5657 5658 5659 5659
5520 5522 5524 5525 5526 5527 5529 5530 5533 5538 5542 5546 5549 5552 5553 5553 5553 5551 5549 5553 5556 5556 5556 5557 5560 5564 5566 5568 5571 5573 5574 5573 5570 5572 5580 5583 5583 5584 5586 5588 5590 5589 5590 5593 5593 5595 5598 5599 5600 5602 5604 5606 5609 5610 5612 5613 5613 5615 5616 5617 5619 5621 5623 5625 5626 5628 5629 5630 5632 5633 5634 5635 5636 5637 5639 5640 5641 5643 5644 5645 5646 5647 5648 5649 5649 5650
5515 5517 5519 5520 5521 5524 5524 5526 5531 5533 5537 5545 5549 5549 5548 5547 5546 5543 5541 5545 5553 5556 5555 5555 5556 5559 5560 5560 5561 5562 5562 5557 5554 5564 5577 5578 5574 5576 5579 5581 5582 5582 5583 5584 5584 5586 5589 5590 5592 5593 5595 5598 5600 5602 5603 5605 5606 5607 5609 5610 5611 5613 5615 5617 5617 5619 5620 5621 5622 5624 5626 5627 5627 5629 5630 5631 5632 5633 5635 5636 5637 5638 5640 5640 5640 5641
5510 5512 5514 5515 5517 5519 5520 5522 5526 5528 5534 5544 5545 5543 5542 5541 5539 5537 5534 5540 5553 5557 5553 5551 5551 5551 5552 5552 5552 5552 5550 5546 5548 5561 5571 5568 5565 5569 5571 5571 5572 5573 5573 5575 5576 5578 5580 5582 5584 5586 5588 5590 5592 5594 5595 5597 5598 5600 5601 5602 5602 5603 5605 5607 5608 5610 5612 5612 5613 5615 5617 5618 5619 5620 5621 5622 5624 5625 5626 5627 5628 5629 5630 5631 5631 5632
5505 5507 5510 5511 5513 5516 5516 5518 5522 5525 5533 5541 5539 5535 5535 5534 5533 5531 5529 5538 5553 5554 5547 5544 5543 5542 5544 5545 5545 5544 5543 5542 5546 5555 5558 5556 5558 5561 5561 5561 5562 5562 5564 5566 5568 5570 5573 5574 5576 5578 5580 5582 5584 5586 5587 5588 5590 5591 5592 5593 5594 5594 5596 5597 5598 5601 5603 5604 5605 5606 5607 5609 5610 5611 5613 5614 5615 5616 5617 5618 5619 5620 5621 5621 5622 5623
5500 5503 5505 5508 5511 5513 5513 5515 5519 5522 5529 5535 5533 5529 5528 5527 5525 5526 5529 5539 5547 5544 5537 5535 5535 5536 5539 5540 5539 5539 5539 5540 5541 5544 5546 5548 5552 5553 5552 5552 5551 5552 5555 5558 5560 5562 5564 5566 5568 5570 5572 5574 5576 5578 5579 5580 5581 5582 5584 5585 5585 5586 5587 5588 5589 5591 5593 5595 5596 5597 5598 5600 5601 5602 5604 5604 5605 5607 5608 5609 5610 5611 5612 5613 5613 5614
5495 5498 5500 5503 5506 5508 5509 5512 5514 5517 5526 5531 5527 5524 5523 5521 5520 5523 5529 5534 5536 5533 5529 5527 5530 5533 5533 5533 5534 5534 5534 5535 5535 5536 5539 5541 5543 5544 5544 5544 5543 5543 5546 5549 5551 5553 5556 5558 5560 5562 5564 5566 5568 5570 5571 5572 5573 5574 5575 5577 5577 5578 5579 5580 5581 5581 5582 5585 5587 5588 5589 5590 5591 5593 5594 5595 5596 5597 5598 5599 5601 5602 5603 5604 5605 5605
5491 5492 5494 5499 5502 5502 5503 5505 5508 5515 5524 5526 5521 5518 5517 5517 5517 5519 5522 5525 5526 5525 5522 5521 5524 5526 5525 5525 5527 5527 5527 5528 5528 5530 5532 5534 5535 5536 5536 5536 5536 5536 5537 5540 5543 5545 5547 5549 5552 5553 5555 5557 5559 5561 5562 5563 5565 5566 5567 5568 5569 5570 5571 5571 5572 5572 5572 5574 5576 5578 5580 5581 5582 5583 5585 5586 5587 5588 5588 5589 5591 5592 5594 5595 5595 5596
5484 5487 5491 5495 5496 5495 5495 5499 5506 5515 5519 5516 5513 5512 5513 5513 5514 5514 5515 5518 5519 5517 5515 5515 5517 5517 5517 5518 5520 5520 5521 5522 5522 5524 5526 5527 5528 5529 5528 5529 5529 5529 5530 5532 5534 5537 5539 5541 5543 5545 5547 5549 5551 5552 5554 5555 5556 5558 5559 5559 5560 5562 5563 5563 5563 5563 5564 5565 5566 5568 5570 5572 5573 5574 5575 5576 5577 5578 5579 5580 5581 5582 5583 5584 5586 5586
5481 5485 5488 5489 5489 5490 5492 5497 5504 5510 5509 5506 5506 5509 5509 5509 5509 5508 5508 5511 5511 5510 5509 5509 5510 5511 5511 5511 5512 5513 5514 5515 5516 5518 5519 5521 5522 5522 5522 5522 5522 5522 5523 5525 5526 5528 5531 5532 5534 5536 5538 5540 5542 5544 5545 5547 5548 5550 5550 5550 5551 5553 5554 5554 5555 5556 5556 5557 5558 5559 5560 5562 5563 5565 5566 5568 5568 5569 5570 5571 5572 5573 5574 5575 5576 5577
5478 5480 5480 5481 5483 5484 5488 5494 5500 5503 5503 5501 5502 5503 5502 5502 5502 5501 5502 5504 5505 5505 5504 5503 5504 5505 5504 5504 5505 5507 5507 5508 5509 5511 5513 5514 5515 5515 5515 5515 5515 5516 5517 5517 5519 5520 5522 5524 5526 5528 5529 5531 5533 5535 5537 5539 5540 5542 5542 5543 5544 5545 5546 5546 5547 5547 5547 5548 5550 5551 5551 5552 5554 5555 5557 5559 5560 5560 5561 5562 5563 5564 5565 5566 5567 5568
5471 5472 5472 5475 5477 5479 5485 5493 5496 5496 5497 5497 5496 5496 5497 5497 5496 5495 5496 5498 5499 5499 5499 5498 5498 5499 5498 5499 5499 5500 5501 5502 5503 5504 5506 5507 5508 5508 5508 5508 5509 5510 5510 5511 5512 5513 5514 5516 5518 5520 5522 5524 5525 5527 5528 5530 5532 5534 5535 5536 5536 5537 5538 5539 5539 5539 5539 5539 5541 5542 5542 5543 5544 5546 5548 5550 5551 5552 5553 5554 5555 5556 5557 5558 5559 5559
5466 5466 5467 5470 5472 5475 5482 5489 5489 5487 5490 5491 5491 5491 5492 5490 5489 5489 5489 5491 5492 5493 5493 5492 5492 5492 5493 5493 5493 5494 5495 5495 5496 5497 5499 5500 5501 5502 5502 5501 5502 5503 5503 5504 5504 5505 5506 5507 5509 5511 5513 5515 5516 5518 5520 5522 5524 5526 5527 5528 5529 5529 5530 5531 5531 5531 5531 5531 5532 5533 5533 5534 5536 5537 5539 5540 5542 5543 5544 5545 5546 5547 5548 5549 5550 5551
5459 5459 5463 5467 5468 5470 5477 5483 5482 5481 5484 5485 5485 5485 5484 5483 5483 5483 5484 5485 5485 5486 5486 5485 5485 5486 5487 5487 5487 5488 5488 5488 5489 5490 5491 5493 5494 5495 5495 5495 5496 5497 5497 5497 5497 5497 5498 5499 5501 5502 5504 5505 5507 5509 5511 5513 5515 5517 5519 5521 5521 5522 5522 5522 5523 5523 5523 5523 5524 5525 5525 5527 5528 5528 5529 5531 5533 5534 5536 5537 5538 5539 5540 5541 5542 5543
5452 5456 5460 5461 5461 5465 5473 5478 5476 5474 5476 5479 5479 5477 5477 5477 5477 5478 5479 5479 5479 5479 5479 5479 5479 5480 5480 5481 5481 5482 5482 5482 5483 5484 5484 5486 5487 5488 5488 5489 5489 5490 5491 5491 5491 5492 5492 5493 5494 5495 5496 5497 5498 5500 5502 5504 5506 5509 5511 5513 5514 5514 5514 5514 5515 5516 5516 5516 5516 5517 5518 5519 5520 5521 5522 5523 5524 5525 5526 5528 5529 5530 5531 5532 5533 5534
5449 5453 5455 5454 5456 5462 5468 5469 5466 5465 5469 5474 5473 5470 5470 5472 5472 5472 5474 5473 5472 5472 5472 5472 5473 5473 5473 5474 5475 5475 5476 5476 5476 5477 5478 5479 5479 5480 5481 5482 5483 5484 5484 5484 5485 5487 5487 5488 5489 5489 5490 5491 5492 5492 5493 5495 5498 5500 5503 5505 5506 5506 5506 5507 5507 5508 5508 5509 5509 5510 5511 5512 5513 5514 5515 5515 5516 5517 5518 5519 5519 5520 5522 5523 5524 5524